TimeMDT,TemperatureF,Dew PointF,Humidity,Sea Level PressureIn,VisibilityMPH,Wind Direction,Wind SpeedMPH,Gust SpeedMPH,PrecipitationIn,Events,Conditions,WindDirDegrees,DateUTC
12:15 AM,69.3,46.8,45,30.40,10.0,South,5.8,-,N/A,,Clear,170,2013-09-04 06:15:00
12:35 AM,68.0,47.3,47,30.41,10.0,SW,4.6,-,N/A,,Clear,230,2013-09-04 06:35:00
12:55 AM,66.9,47.3,49,30.41,10.0,SSW,4.6,-,N/A,,Clear,210,2013-09-04 06:55:00
1:15 AM,66.7,46.4,48,30.41,10.0,SSW,3.5,-,N/A,,Clear,210,2013-09-04 07:15:00
1:35 AM,66.7,46.4,48,30.42,10.0,SSW,4.6,-,N/A,,Clear,200,2013-09-04 07:35:00
1:55 AM,66.4,46.0,48,30.41,10.0,SSW,4.6,-,N/A,,Clear,210,2013-09-04 07:55:00
2:15 AM,65.8,46.0,49,30.40,10.0,SSW,5.8,-,N/A,,Clear,200,2013-09-04 08:15:00
2:35 AM,65.1,46.8,51,30.40,10.0,SW,5.8,-,N/A,,Clear,230,2013-09-04 08:35:00
2:55 AM,64.9,46.6,51,30.40,10.0,South,5.8,-,N/A,,Clear,190,2013-09-04 08:55:00
3:15 AM,66.0,45.7,48,30.40,10.0,South,3.5,-,N/A,,Clear,180,2013-09-04 09:15:00
3:35 AM,65.5,45.9,49,30.41,10.0,Calm,Calm,-,N/A,,Clear,0,2013-09-04 09:35:00
3:55 AM,66.2,45.5,47,30.41,10.0,Calm,Calm,-,N/A,,Clear,0,2013-09-04 09:55:00
4:15 AM,65.7,45.5,48,30.41,10.0,Calm,Calm,-,N/A,,Clear,0,2013-09-04 10:15:00
4:35 AM,65.7,45.5,48,30.40,10.0,WSW,3.5,-,N/A,,Clear,250,2013-09-04 10:35:00
4:55 AM,63.9,46.2,53,30.41,10.0,WSW,5.8,-,N/A,,Clear,250,2013-09-04 10:55:00
5:15 AM,64.6,45.5,50,30.41,10.0,WSW,4.6,-,N/A,,Clear,240,2013-09-04 11:15:00
5:35 AM,63.9,45.7,52,30.41,10.0,WSW,5.8,-,N/A,,Clear,240,2013-09-04 11:35:00
5:55 AM,64.6,45.1,49,30.41,10.0,SW,4.6,-,N/A,,Clear,220,2013-09-04 11:55:00
6:15 AM,64.2,45.7,51,30.41,10.0,SW,3.5,-,N/A,,Clear,220,2013-09-04 12:15:00
6:35 AM,64.4,45.0,49,30.42,10.0,SW,3.5,-,N/A,,Clear,230,2013-09-04 12:35:00
6:55 AM,63.3,46.4,54,30.42,10.0,SW,4.6,-,N/A,,Clear,220,2013-09-04 12:55:00
7:15 AM,64.4,45.1,50,30.42,10.0,Calm,Calm,-,N/A,,Clear,0,2013-09-04 13:15:00
7:35 AM,63.1,46.8,55,30.44,10.0,Calm,Calm,-,N/A,,Clear,0,2013-09-04 13:35:00
7:55 AM,63.0,46.4,55,30.44,10.0,NNE,3.5,-,N/A,,Clear,20,2013-09-04 13:55:00
8:15 AM,64.2,46.0,52,30.44,10.0,Calm,Calm,-,N/A,,Clear,0,2013-09-04 14:15:00
8:35 AM,65.7,45.5,48,30.44,10.0,Calm,Calm,-,N/A,,Clear,0,2013-09-04 14:35:00
8:55 AM,67.5,45.3,45,30.45,10.0,Calm,Calm,-,N/A,,Clear,0,2013-09-04 14:55:00
9:15 AM,68.7,44.4,42,30.45,10.0,ENE,3.5,-,N/A,,Clear,60,2013-09-04 15:15:00
9:35 AM,70.0,46.2,43,30.45,10.0,ENE,3.5,-,N/A,,Clear,60,2013-09-04 15:35:00
9:55 AM,70.2,45.5,41,30.45,10.0,ENE,4.6,-,N/A,,Clear,70,2013-09-04 15:55:00
10:15 AM,70.9,45.1,40,30.45,10.0,ENE,3.5,-,N/A,,Clear,70,2013-09-04 16:15:00
10:35 AM,71.8,44.4,37,30.45,10.0,Calm,Calm,-,N/A,,Clear,0,2013-09-04 16:35:00
10:55 AM,72.9,44.4,36,30.45,10.0,ENE,3.5,-,N/A,,Clear,60,2013-09-04 16:55:00
11:15 AM,74.3,44.8,35,30.45,10.0,East,3.5,-,N/A,,Clear,80,2013-09-04 17:15:00
11:35 AM,74.8,45.1,35,30.44,10.0,Calm,Calm,-,N/A,,Clear,0,2013-09-04 17:35:00
11:55 AM,76.5,45.5,33,30.44,10.0,ESE,3.5,-,N/A,,Clear,110,2013-09-04 17:55:00
12:15 PM,77.5,45.5,32,30.43,10.0,ESE,5.8,-,N/A,,Clear,120,2013-09-04 18:15:00
12:35 PM,79.0,45.9,31,30.42,10.0,SE,5.8,-,N/A,,Clear,130,2013-09-04 18:35:00
12:55 PM,79.5,45.7,30,30.42,10.0,SE,6.9,-,N/A,,Clear,130,2013-09-04 18:55:00
1:15 PM,79.7,45.0,29,30.41,10.0,South,8.1,-,N/A,,Clear,170,2013-09-04 19:15:00
1:35 PM,79.9,44.4,28,30.41,10.0,SSE,11.5,-,N/A,,Clear,160,2013-09-04 19:35:00
1:55 PM,81.7,43.7,26,30.40,10.0,East,8.1,-,N/A,,Clear,100,2013-09-04 19:55:00
2:15 PM,81.3,42.8,26,30.40,10.0,SE,9.2,-,N/A,,Clear,130,2013-09-04 20:15:00
2:35 PM,82.8,41.9,24,30.39,10.0,ESE,8.1,-,N/A,,Clear,120,2013-09-04 20:35:00
2:55 PM,81.9,40.1,23,30.38,10.0,WSW,5.8,16.1,N/A,,Clear,250,2013-09-04 20:55:00
3:15 PM,82.4,41.2,23,30.38,10.0,SSE,12.7,-,N/A,,Clear,150,2013-09-04 21:15:00
3:35 PM,83.1,41.7,23,30.37,10.0,East,4.6,-,N/A,,Clear,100,2013-09-04 21:35:00
3:55 PM,83.1,42.8,24,30.37,10.0,SE,11.5,-,N/A,,Scattered Clouds,140,2013-09-04 21:55:00
4:15 PM,82.6,42.1,24,30.36,10.0,SSE,10.4,-,N/A,,Scattered Clouds,160,2013-09-04 22:15:00
4:35 PM,82.9,41.7,23,30.36,10.0,ESE,9.2,16.1,N/A,,Scattered Clouds,120,2013-09-04 22:35:00
4:55 PM,82.4,39.6,22,30.36,10.0,SSE,6.9,18.4,N/A,,Clear,150,2013-09-04 22:55:00
5:15 PM,83.5,39.2,21,30.36,10.0,ESE,11.5,-,N/A,,Clear,120,2013-09-04 23:15:00
5:35 PM,82.8,38.5,21,30.36,10.0,SE,8.1,17.3,N/A,,Clear,140,2013-09-04 23:35:00
5:55 PM,82.8,37.8,20,30.36,10.0,South,9.2,-,N/A,,Clear,180,2013-09-04 23:55:00
6:15 PM,81.9,37.0,20,30.36,10.0,SSE,10.4,17.3,N/A,,Clear,160,2013-09-05 00:15:00
6:35 PM,81.5,36.5,20,30.36,10.0,SSE,9.2,18.4,N/A,,Clear,150,2013-09-05 00:35:00
6:55 PM,80.6,36.0,20,30.36,10.0,South,10.4,18.4,N/A,,Scattered Clouds,190,2013-09-05 00:55:00
7:15 PM,79.7,34.5,20,30.37,10.0,South,10.4,-,N/A,,Scattered Clouds,170,2013-09-05 01:15:00
7:35 PM,79.0,33.3,19,30.38,10.0,SSE,6.9,-,N/A,,Clear,150,2013-09-05 01:35:00
7:55 PM,77.9,33.1,20,30.38,10.0,SSE,8.1,-,N/A,,Clear,150,2013-09-05 01:55:00
8:15 PM,77.0,33.8,21,30.39,10.0,SSE,5.8,-,N/A,,Clear,160,2013-09-05 02:15:00
8:35 PM,76.1,32.9,21,30.40,10.0,South,10.4,-,N/A,,Clear,170,2013-09-05 02:35:00
8:55 PM,75.6,32.9,21,30.41,10.0,SSE,10.4,17.3,N/A,,Clear,160,2013-09-05 02:55:00
9:15 PM,74.8,34.2,23,30.43,10.0,SSE,8.1,17.3,N/A,,Clear,160,2013-09-05 03:15:00
9:35 PM,73.9,35.1,24,30.44,10.0,SSE,9.2,-,N/A,,Clear,160,2013-09-05 03:35:00
9:55 PM,73.0,35.6,25,30.44,10.0,South,8.1,-,N/A,,Clear,170,2013-09-05 03:55:00
10:15 PM,72.5,36.0,26,30.45,10.0,South,8.1,-,N/A,,Clear,170,2013-09-05 04:15:00
10:35 PM,71.6,36.5,28,30.45,10.0,South,8.1,-,N/A,,Clear,170,2013-09-05 04:35:00
10:55 PM,70.5,36.7,29,30.46,10.0,South,9.2,-,N/A,,Clear,190,2013-09-05 04:55:00
11:15 PM,69.6,36.5,30,30.46,10.0,SSW,5.8,-,N/A,,Clear,200,2013-09-05 05:15:00
11:35 PM,69.1,36.0,30,30.46,10.0,SW,8.1,-,N/A,,Clear,220,2013-09-05 05:35:00
11:55 PM,69.4,36.7,30,30.46,10.0,SSW,8.1,-,N/A,,Clear,210,2013-09-05 05:55:00